JBU378 KSFO-KFLL

Flight info

Callsign JBU378
Flight time 4h 54m
Altitude 35000
Route WESLA5 KAYEX LOSHN BOILE BLH EWM J4 INK CLL LCH LEV Y290 OCHHO VNECK TEEKY4
Aircraft A321/M-SDE3FGHIRWY/LB1

Departure

Time 2026-05-07 20:19
Airport San Francisco International Airport (KSFO)

Arrival

Time 2026-05-08 01:14
Airport Fort Lauderdale Hollywood International Airport (KFLL)
Time Latitude Longitude Altitude Speed Heading
2026-05-07 19:45 37.61175 -122.38628 26 ft 0 kts 118°
2026-05-07 20:05 37.61184 -122.38651 38 ft 4 kts 118°
2026-05-07 20:05 37.61195 -122.38677 23 ft 3 kts 118°
2026-05-07 20:05 37.61210 -122.38701 23 ft 4 kts 165°
2026-05-07 20:05 37.61233 -122.38696 24 ft 4 kts 210°
2026-05-07 20:06 37.61239 -122.38691 23 ft 4 kts 207°
2026-05-07 20:06 37.61215 -122.38707 24 ft 4 kts 207°
2026-05-07 20:06 37.61203 -122.38715 19 ft 0 kts 207°
2026-05-07 20:10 37.61178 -122.38731 23 ft 10 kts 207°
2026-05-07 20:10 37.61089 -122.38790 22 ft 16 kts 207°
2026-05-07 20:10 37.60987 -122.38857 22 ft 16 kts 206°
2026-05-07 20:10 37.60902 -122.38807 22 ft 16 kts 118°
2026-05-07 20:11 37.60849 -122.38684 22 ft 16 kts 118°
2026-05-07 20:11 37.60796 -122.38560 22 ft 16 kts 118°
2026-05-07 20:11 37.60706 -122.38496 22 ft 16 kts 166°
2026-05-07 20:11 37.60626 -122.38406 22 ft 16 kts 131°
2026-05-07 20:12 37.60555 -122.38301 22 ft 16 kts 130°
2026-05-07 20:12 37.60501 -122.38180 22 ft 16 kts 101°
2026-05-07 20:12 37.60516 -122.38044 24 ft 16 kts 81°
2026-05-07 20:12 37.60582 -122.37944 23 ft 16 kts 30°
2026-05-07 20:13 37.60677 -122.37879 22 ft 16 kts 27°
2026-05-07 20:13 37.60776 -122.37816 22 ft 16 kts 27°
2026-05-07 20:13 37.60875 -122.37753 22 ft 16 kts 27°
2026-05-07 20:13 37.60974 -122.37685 22 ft 16 kts 28°
2026-05-07 20:14 37.61073 -122.37616 22 ft 16 kts 28°
2026-05-07 20:14 37.61174 -122.37548 22 ft 16 kts 26°
2026-05-07 20:14 37.61277 -122.37483 22 ft 17 kts 26°
2026-05-07 20:14 37.61380 -122.37419 22 ft 17 kts 26°
2026-05-07 20:15 37.61483 -122.37350 24 ft 17 kts 28°
2026-05-07 20:15 37.61553 -122.37236 22 ft 17 kts 72°
2026-05-07 20:15 37.61542 -122.37091 23 ft 17 kts 114°
2026-05-07 20:15 37.61487 -122.36959 22 ft 17 kts 122°
2026-05-07 20:16 37.61410 -122.36844 22 ft 17 kts 131°
2026-05-07 20:16 37.61340 -122.36722 22 ft 17 kts 116°
2026-05-07 20:16 37.61286 -122.36586 22 ft 17 kts 118°
2026-05-07 20:16 37.61228 -122.36452 23 ft 17 kts 118°
2026-05-07 20:17 37.61170 -122.36317 23 ft 18 kts 118°
2026-05-07 20:17 37.61111 -122.36180 22 ft 18 kts 118°
2026-05-07 20:17 37.61055 -122.36041 22 ft 18 kts 105°
2026-05-07 20:17 37.61097 -122.35909 23 ft 17 kts 33°
2026-05-07 20:18 37.61172 -122.35897 22 ft 17 kts 342°
2026-05-07 20:18 37.61243 -122.36006 23 ft 17 kts 298°
2026-05-07 20:18 37.61344 -122.36249 23 ft 59 kts 298°
2026-05-07 20:18 37.61640 -122.36950 24 ft 120 kts 298°
2026-05-07 20:19 37.62111 -122.38071 31 ft 167 kts 299°
2026-05-07 20:19 37.62680 -122.39397 500 ft 171 kts 300°
2026-05-07 20:19 37.63260 -122.40718 1147 ft 173 kts 298°
2026-05-07 20:19 37.63861 -122.42105 1558 ft 190 kts 298°
2026-05-07 20:20 37.64524 -122.43638 1728 ft 209 kts 298°
2026-05-07 20:20 37.65262 -122.45332 1935 ft 228 kts 299°
2026-05-07 20:20 37.66032 -122.47091 2541 ft 230 kts 299°
2026-05-07 20:20 37.66766 -122.48912 3053 ft 240 kts 287°
2026-05-07 20:21 37.66763 -122.51039 3336 ft 256 kts 250°
2026-05-07 20:21 37.65676 -122.52825 3871 ft 264 kts 214°
2026-05-07 20:21 37.63925 -122.53504 4460 ft 270 kts 179°
2026-05-07 20:21 37.62060 -122.53116 5141 ft 274 kts 166°
2026-05-07 20:22 37.60249 -122.52345 5797 ft 276 kts 161°
2026-05-07 20:22 37.58448 -122.51468 6427 ft 278 kts 161°
2026-05-07 20:22 37.56631 -122.50598 7051 ft 280 kts 162°
2026-05-07 20:22 37.54789 -122.49772 7653 ft 282 kts 163°
2026-05-07 20:23 37.52924 -122.48991 8256 ft 284 kts 164°
2026-05-07 20:23 37.51058 -122.48248 8845 ft 286 kts 163°
2026-05-07 20:23 37.49249 -122.47178 9422 ft 291 kts 148°
2026-05-07 20:23 37.47712 -122.45499 9992 ft 296 kts 132°
2026-05-07 20:24 37.46396 -122.43447 10282 ft 311 kts 130°
2026-05-07 20:24 37.44999 -122.41266 10408 ft 329 kts 131°
2026-05-07 20:24 37.43518 -122.38965 10518 ft 347 kts 130°
2026-05-07 20:24 37.41963 -122.36550 10640 ft 364 kts 131°
2026-05-07 20:25 37.40343 -122.34034 10899 ft 374 kts 130°
2026-05-07 20:25 37.38695 -122.31471 11344 ft 379 kts 130°
2026-05-07 20:25 37.37030 -122.28885 11863 ft 382 kts 130°
2026-05-07 20:25 37.35355 -122.26285 12378 ft 384 kts 131°
2026-05-07 20:26 37.33662 -122.23659 12870 ft 388 kts 130°
2026-05-07 20:26 37.31954 -122.21017 13385 ft 390 kts 130°
2026-05-07 20:26 37.30237 -122.18362 13873 ft 394 kts 130°
2026-05-07 20:26 37.28496 -122.15682 14390 ft 396 kts 130°
2026-05-07 20:27 37.26748 -122.12994 14873 ft 398 kts 129°
2026-05-07 20:27 37.25015 -122.10328 15348 ft 401 kts 130°
2026-05-07 20:27 37.23246 -122.07603 15788 ft 404 kts 129°
2026-05-07 20:27 37.21466 -122.04862 16263 ft 407 kts 129°
2026-05-07 20:28 37.19671 -122.02096 16704 ft 410 kts 129°
2026-05-07 20:28 37.17863 -121.99312 17168 ft 413 kts 129°
2026-05-07 20:28 37.16042 -121.96515 17630 ft 416 kts 129°
2026-05-07 20:28 37.14200 -121.93692 18094 ft 419 kts 129°
2026-05-07 20:29 37.12350 -121.90860 18510 ft 422 kts 129°
2026-05-07 20:29 37.10481 -121.88002 18903 ft 425 kts 129°
2026-05-07 20:29 37.08599 -121.85123 19312 ft 426 kts 129°
2026-05-07 20:29 37.06716 -121.82237 19694 ft 429 kts 129°
2026-05-07 20:30 37.04830 -121.79346 20119 ft 430 kts 129°
2026-05-07 20:30 37.02931 -121.76447 20495 ft 432 kts 129°
2026-05-07 20:30 37.01020 -121.73534 20860 ft 434 kts 129°
2026-05-07 20:30 36.99122 -121.70641 21225 ft 436 kts 128°
2026-05-07 20:31 36.97166 -121.67663 21578 ft 438 kts 129°
2026-05-07 20:31 36.95225 -121.64714 21931 ft 441 kts 128°
2026-05-07 20:31 36.93299 -121.61787 22285 ft 442 kts 129°
2026-05-07 20:31 36.91316 -121.58776 22610 ft 444 kts 129°
2026-05-07 20:32 36.89374 -121.55827 22951 ft 446 kts 129°
2026-05-07 20:32 36.87399 -121.52831 23299 ft 448 kts 129°
2026-05-07 20:32 36.85412 -121.49822 23628 ft 450 kts 129°
2026-05-07 20:32 36.83417 -121.46808 23925 ft 451 kts 129°
2026-05-07 20:33 36.81414 -121.43782 24202 ft 453 kts 129°
2026-05-07 20:33 36.79401 -121.40742 24479 ft 454 kts 129°
2026-05-07 20:33 36.77384 -121.37699 24763 ft 456 kts 129°
2026-05-07 20:33 36.75353 -121.34639 25037 ft 458 kts 129°
2026-05-07 20:34 36.73322 -121.31582 25303 ft 459 kts 129°
2026-05-07 20:34 36.71281 -121.28512 25545 ft 461 kts 129°
2026-05-07 20:34 36.69229 -121.25425 25783 ft 463 kts 129°
2026-05-07 20:34 36.67164 -121.22323 26051 ft 464 kts 129°
2026-05-07 20:35 36.65104 -121.19228 26337 ft 465 kts 129°
2026-05-07 20:35 36.63059 -121.16154 26592 ft 467 kts 129°
2026-05-07 20:35 36.60979 -121.13037 26843 ft 468 kts 129°
2026-05-07 20:35 36.58895 -121.09919 27099 ft 470 kts 129°
2026-05-07 20:36 36.56802 -121.06789 27340 ft 471 kts 129°
2026-05-07 20:36 36.54697 -121.03647 27659 ft 471 kts 129°
2026-05-07 20:36 36.52596 -121.00516 28023 ft 470 kts 129°
2026-05-07 20:36 36.50502 -120.97399 28383 ft 469 kts 129°
2026-05-07 20:37 36.48409 -120.94283 28750 ft 468 kts 129°
2026-05-07 20:37 36.46333 -120.91182 29139 ft 466 kts 129°
2026-05-07 20:37 36.44266 -120.88086 29498 ft 465 kts 129°
2026-05-07 20:37 36.42208 -120.84992 29837 ft 464 kts 129°
2026-05-07 20:38 36.40154 -120.81903 30181 ft 463 kts 129°
2026-05-07 20:38 36.38103 -120.78828 30463 ft 463 kts 129°
2026-05-07 20:38 36.36045 -120.75754 30748 ft 462 kts 129°
2026-05-07 20:38 36.34016 -120.72727 31019 ft 461 kts 129°
2026-05-07 20:39 36.31966 -120.69673 31283 ft 461 kts 129°
2026-05-07 20:39 36.29915 -120.66623 31547 ft 460 kts 129°
2026-05-07 20:39 36.27865 -120.63575 31799 ft 460 kts 129°
2026-05-07 20:39 36.25817 -120.60526 32060 ft 460 kts 129°
2026-05-07 20:40 36.23774 -120.57486 32319 ft 459 kts 129°
2026-05-07 20:40 36.21730 -120.54450 32570 ft 459 kts 129°
2026-05-07 20:40 36.19688 -120.51421 32823 ft 458 kts 129°
2026-05-07 20:40 36.17646 -120.48392 33074 ft 458 kts 129°
2026-05-07 20:41 36.15600 -120.45362 33316 ft 458 kts 129°
2026-05-07 20:41 36.13554 -120.42336 33559 ft 457 kts 129°
2026-05-07 20:41 36.11506 -120.39315 33744 ft 458 kts 129°
2026-05-07 20:41 36.09461 -120.36304 34072 ft 455 kts 129°
2026-05-07 20:42 36.07432 -120.33322 34313 ft 453 kts 129°
2026-05-07 20:42 36.05433 -120.30378 34498 ft 453 kts 129°
2026-05-07 20:42 36.03406 -120.27392 34654 ft 454 kts 129°
2026-05-07 20:42 36.01374 -120.24397 34810 ft 454 kts 129°
2026-05-07 20:43 35.99342 -120.21408 34961 ft 455 kts 129°
2026-05-07 20:43 35.97304 -120.18420 35073 ft 456 kts 129°
2026-05-07 20:43 35.95250 -120.15406 35096 ft 459 kts 129°
2026-05-07 20:44 35.91133 -120.09367 35091 ft 459 kts 129°
2026-05-07 20:44 35.87018 -120.03364 35087 ft 457 kts 129°
2026-05-07 20:45 35.82906 -119.97381 35092 ft 457 kts 129°
2026-05-07 20:45 35.78739 -119.91432 35099 ft 459 kts 130°
2026-05-07 20:46 35.74539 -119.85498 35088 ft 459 kts 130°
2026-05-07 20:46 35.70377 -119.79606 35102 ft 459 kts 130°
2026-05-07 20:47 35.66193 -119.73672 35105 ft 458 kts 130°
2026-05-07 20:47 35.62012 -119.67749 35099 ft 458 kts 130°
2026-05-07 20:48 35.57822 -119.61832 35102 ft 458 kts 130°
2026-05-07 20:48 35.53634 -119.55934 35093 ft 458 kts 130°
2026-05-07 20:49 35.49438 -119.50036 35098 ft 458 kts 130°
2026-05-07 20:49 35.45272 -119.44182 35085 ft 458 kts 130°
2026-05-07 20:50 35.41077 -119.38300 35087 ft 458 kts 130°
2026-05-07 20:50 35.36891 -119.32451 35082 ft 458 kts 130°
2026-05-07 20:51 35.32686 -119.26587 35071 ft 458 kts 130°
2026-05-07 20:51 35.28480 -119.20726 35074 ft 458 kts 130°
2026-05-07 20:52 35.24266 -119.14852 35082 ft 458 kts 130°
2026-05-07 20:52 35.20054 -119.08998 35092 ft 458 kts 130°
2026-05-07 20:53 35.15863 -119.03186 35099 ft 458 kts 130°
2026-05-07 20:53 35.11648 -118.97346 35108 ft 458 kts 130°
2026-05-07 20:54 35.07428 -118.91507 35100 ft 459 kts 129°
2026-05-07 20:54 35.03205 -118.85665 35102 ft 459 kts 129°
2026-05-07 20:55 34.98963 -118.79824 35108 ft 460 kts 129°
2026-05-07 20:55 34.94722 -118.73988 35116 ft 460 kts 129°
2026-05-07 20:56 34.90472 -118.68155 35120 ft 460 kts 129°
2026-05-07 20:56 34.86216 -118.62322 35112 ft 460 kts 129°
2026-05-07 20:57 34.81959 -118.56494 35074 ft 461 kts 129°
2026-05-07 20:57 34.77719 -118.50705 35072 ft 461 kts 129°
2026-05-07 20:58 34.73448 -118.44878 35079 ft 462 kts 129°
2026-05-07 20:58 34.69178 -118.39050 35081 ft 462 kts 129°
2026-05-07 20:59 34.64897 -118.33224 35090 ft 462 kts 129°
2026-05-07 20:59 34.60604 -118.27397 35082 ft 462 kts 129°
2026-05-07 21:00 34.56340 -118.21613 35070 ft 463 kts 129°
2026-05-07 21:00 34.52041 -118.15804 35059 ft 463 kts 129°
2026-05-07 21:01 34.47735 -118.10002 35077 ft 463 kts 129°
2026-05-07 21:01 34.43609 -118.04041 35033 ft 460 kts 120°
2026-05-07 21:02 34.40940 -117.97093 35041 ft 453 kts 103°
2026-05-07 21:02 34.39192 -117.89751 35044 ft 453 kts 103°
2026-05-07 21:03 34.37442 -117.82415 35036 ft 454 kts 103°
2026-05-07 21:03 34.35686 -117.75111 35047 ft 454 kts 103°
2026-05-07 21:04 34.33918 -117.67773 35044 ft 454 kts 103°
2026-05-07 21:04 34.32149 -117.60434 35049 ft 454 kts 103°
2026-05-07 21:05 34.30373 -117.53092 35047 ft 454 kts 103°
2026-05-07 21:05 34.28593 -117.45753 35044 ft 454 kts 103°
2026-05-07 21:06 34.26812 -117.38418 35050 ft 454 kts 103°
2026-05-07 21:06 34.25328 -117.32331 35053 ft 454 kts 103°
2026-05-07 21:07 34.23244 -117.23824 35057 ft 454 kts 103°
2026-05-07 21:07 34.21739 -117.17699 35023 ft 454 kts 103°
2026-05-07 21:08 34.19937 -117.10399 35038 ft 453 kts 104°
2026-05-07 21:08 34.18136 -117.03106 35031 ft 452 kts 104°
2026-05-07 21:09 34.16350 -116.95858 35029 ft 453 kts 103°
2026-05-07 21:09 34.14543 -116.88571 35030 ft 453 kts 104°
2026-05-07 21:10 34.12728 -116.81288 35024 ft 453 kts 103°
2026-05-07 21:10 34.10911 -116.74012 35001 ft 452 kts 103°
2026-05-07 21:11 34.09093 -116.66738 34991 ft 452 kts 103°
2026-05-07 21:11 34.06366 -116.55840 34983 ft 452 kts 103°
2026-05-07 21:12 34.04542 -116.48583 34972 ft 452 kts 104°
2026-05-07 21:12 34.02709 -116.41336 34965 ft 452 kts 104°
2026-05-07 21:13 34.00884 -116.34142 34970 ft 452 kts 104°
2026-05-07 21:13 33.99044 -116.26903 34965 ft 451 kts 104°
2026-05-07 21:14 33.97206 -116.19672 35004 ft 451 kts 103°
2026-05-07 21:14 33.95364 -116.12461 34998 ft 450 kts 103°
2026-05-07 21:15 33.93520 -116.05257 34980 ft 450 kts 104°
2026-05-07 21:15 33.91665 -115.98060 34981 ft 449 kts 104°
2026-05-07 21:16 33.89811 -115.90857 34989 ft 450 kts 103°
2026-05-07 21:16 33.87963 -115.83678 34982 ft 449 kts 103°
2026-05-07 21:17 33.86117 -115.76544 34970 ft 449 kts 104°
2026-05-07 21:17 33.84255 -115.69375 34970 ft 449 kts 104°
2026-05-07 21:18 33.82387 -115.62203 34968 ft 448 kts 103°
2026-05-07 21:18 33.80527 -115.55064 34957 ft 446 kts 103°
2026-05-07 21:19 33.78675 -115.47970 34948 ft 447 kts 104°
2026-05-07 21:19 33.76805 -115.40849 34948 ft 447 kts 104°
2026-05-07 21:20 33.74931 -115.33716 34950 ft 447 kts 104°
2026-05-07 21:20 33.73053 -115.26579 34958 ft 447 kts 103°
2026-05-07 21:21 33.71166 -115.19456 34958 ft 447 kts 104°
2026-05-07 21:21 33.69281 -115.12339 34955 ft 447 kts 104°
2026-05-07 21:22 33.67390 -115.05216 34947 ft 447 kts 104°
2026-05-07 21:22 33.65502 -114.98143 34958 ft 447 kts 104°
2026-05-07 21:23 33.63602 -114.91038 34953 ft 447 kts 104°
2026-05-07 21:23 33.61700 -114.83931 34957 ft 447 kts 103°
2026-05-07 21:24 33.59807 -114.76824 34948 ft 446 kts 101°
2026-05-07 21:24 33.58585 -114.69579 34947 ft 443 kts 96°
2026-05-07 21:25 33.57437 -114.62310 34948 ft 443 kts 97°
2026-05-07 21:25 33.56284 -114.55047 34946 ft 444 kts 96°
2026-05-07 21:26 33.55135 -114.47768 34941 ft 444 kts 97°
2026-05-07 21:26 33.53976 -114.40502 34942 ft 444 kts 97°
2026-05-07 21:27 33.52813 -114.33274 34953 ft 444 kts 97°
2026-05-07 21:27 33.51651 -114.26022 34949 ft 443 kts 97°
2026-05-07 21:28 33.50481 -114.18761 34943 ft 443 kts 97°
2026-05-07 21:28 33.49306 -114.11505 34949 ft 443 kts 97°
2026-05-07 21:29 33.48131 -114.04263 34964 ft 443 kts 97°
2026-05-07 21:29 33.46949 -113.97015 34959 ft 443 kts 97°
2026-05-07 21:30 33.45767 -113.89820 34968 ft 442 kts 97°
2026-05-07 21:30 33.44575 -113.82578 34972 ft 442 kts 97°
2026-05-07 21:31 33.43385 -113.75356 34979 ft 442 kts 97°
2026-05-07 21:31 33.42195 -113.68183 34985 ft 442 kts 97°
2026-05-07 21:32 33.40991 -113.60974 34999 ft 441 kts 97°
2026-05-07 21:32 33.39791 -113.53767 34986 ft 441 kts 97°
2026-05-07 21:33 33.38593 -113.46572 34972 ft 441 kts 97°
2026-05-07 21:33 33.37389 -113.39384 34943 ft 440 kts 97°
2026-05-07 21:34 33.36175 -113.32207 34930 ft 440 kts 97°
2026-05-07 21:34 33.34955 -113.25030 34928 ft 440 kts 97°
2026-05-07 21:35 33.33744 -113.17915 34923 ft 439 kts 97°
2026-05-07 21:35 33.32523 -113.10753 34923 ft 439 kts 97°
2026-05-07 21:36 33.31299 -113.03593 34930 ft 439 kts 97°
2026-05-07 21:36 33.30074 -112.96444 34933 ft 438 kts 97°
2026-05-07 21:37 33.28839 -112.89293 34941 ft 439 kts 97°
2026-05-07 21:37 33.27599 -112.82145 34938 ft 439 kts 97°
2026-05-07 21:38 33.26361 -112.74990 34951 ft 439 kts 97°
2026-05-07 21:38 33.25124 -112.67878 34946 ft 439 kts 97°
2026-05-07 21:39 33.23866 -112.60729 34935 ft 439 kts 97°
2026-05-07 21:39 33.22599 -112.53576 34926 ft 439 kts 97°
2026-05-07 21:40 33.21352 -112.46475 34928 ft 439 kts 97°
2026-05-07 21:40 33.20102 -112.39338 34932 ft 438 kts 97°
2026-05-07 21:41 33.18836 -112.32224 34924 ft 438 kts 97°
2026-05-07 21:41 33.17571 -112.25109 34938 ft 438 kts 97°
2026-05-07 21:42 33.16302 -112.17999 34914 ft 438 kts 97°
2026-05-07 21:42 33.15018 -112.10885 34929 ft 438 kts 98°
2026-05-07 21:43 33.13736 -112.03772 34931 ft 438 kts 98°
2026-05-07 21:43 33.12457 -111.96676 34936 ft 437 kts 98°
2026-05-07 21:44 33.11177 -111.89625 34941 ft 437 kts 98°
2026-05-07 21:44 33.09894 -111.82544 34939 ft 437 kts 98°
2026-05-07 21:45 33.08606 -111.75447 34934 ft 437 kts 98°
2026-05-07 21:45 33.07307 -111.68364 34928 ft 437 kts 98°
2026-05-07 21:46 33.05999 -111.61269 34922 ft 437 kts 98°
2026-05-07 21:46 33.04708 -111.54237 34903 ft 438 kts 98°
2026-05-07 21:47 33.03400 -111.47150 34896 ft 438 kts 98°
2026-05-07 21:47 33.02087 -111.40063 34890 ft 438 kts 98°
2026-05-07 21:48 33.00763 -111.32967 34886 ft 439 kts 98°
2026-05-07 21:48 32.99444 -111.25897 34901 ft 439 kts 98°
2026-05-07 21:49 32.98110 -111.18806 34900 ft 439 kts 98°
2026-05-07 21:49 32.96781 -111.11713 34906 ft 439 kts 99°
2026-05-07 21:50 32.95446 -111.04602 34892 ft 440 kts 99°
2026-05-07 21:50 32.94095 -110.97487 34885 ft 440 kts 99°
2026-05-07 21:51 32.92747 -110.90412 34912 ft 441 kts 100°
2026-05-07 21:51 32.91385 -110.83272 34889 ft 442 kts 100°
2026-05-07 21:52 32.90249 -110.77327 34881 ft 443 kts 101°
2026-05-07 21:52 32.88875 -110.70167 34877 ft 444 kts 101°
2026-05-07 21:53 32.87492 -110.62991 34881 ft 445 kts 101°
2026-05-07 21:53 32.86110 -110.55794 34890 ft 446 kts 101°
2026-05-07 21:54 32.84725 -110.48603 34894 ft 446 kts 101°
2026-05-07 21:54 32.83324 -110.41408 34885 ft 447 kts 102°
2026-05-07 21:55 32.81931 -110.34227 34893 ft 448 kts 102°
2026-05-07 21:55 32.80523 -110.27000 34900 ft 448 kts 102°
2026-05-07 21:56 32.79102 -110.19786 34922 ft 449 kts 103°
2026-05-07 21:56 32.77682 -110.12556 34900 ft 449 kts 104°
2026-05-07 21:57 32.76253 -110.05318 34902 ft 450 kts 104°
2026-05-07 21:57 32.74820 -109.98083 34901 ft 450 kts 104°
2026-05-07 21:58 32.73378 -109.90840 34898 ft 450 kts 105°
2026-05-07 21:58 32.71940 -109.83645 34900 ft 451 kts 104°
2026-05-07 21:59 32.70497 -109.76400 34876 ft 451 kts 105°
2026-05-07 21:59 32.69050 -109.69157 34871 ft 453 kts 105°
2026-05-07 22:00 32.67581 -109.61862 34929 ft 455 kts 105°
2026-05-07 22:00 32.66103 -109.54553 34928 ft 455 kts 105°
2026-05-07 22:01 32.64626 -109.47227 34915 ft 457 kts 105°
2026-05-07 22:01 32.63145 -109.39928 34864 ft 459 kts 107°
2026-05-07 22:02 32.61633 -109.32548 34844 ft 461 kts 107°
2026-05-07 22:02 32.60113 -109.25143 34852 ft 463 kts 107°
2026-05-07 22:03 32.58587 -109.17724 34858 ft 464 kts 107°
2026-05-07 22:03 32.57060 -109.10282 34851 ft 465 kts 108°
2026-05-07 22:04 32.55525 -109.02821 34847 ft 466 kts 108°
2026-05-07 22:04 32.53982 -108.95346 34862 ft 467 kts 108°
2026-05-07 22:05 32.52428 -108.87874 34866 ft 468 kts 108°
2026-05-07 22:05 32.50876 -108.80443 34887 ft 468 kts 109°
2026-05-07 22:06 32.49308 -108.72938 34857 ft 470 kts 110°
2026-05-07 22:06 32.47729 -108.65404 34870 ft 472 kts 110°
2026-05-07 22:07 32.46139 -108.57842 34869 ft 473 kts 110°
2026-05-07 22:07 32.44540 -108.50263 34885 ft 474 kts 110°
2026-05-07 22:08 32.42951 -108.42742 34926 ft 474 kts 110°
2026-05-07 22:08 32.41335 -108.35164 34933 ft 475 kts 110°
2026-05-07 22:09 32.39719 -108.27568 34953 ft 476 kts 110°
2026-05-07 22:09 32.38095 -108.19963 34965 ft 477 kts 110°
2026-05-07 22:10 32.36455 -108.12345 34960 ft 477 kts 110°
2026-05-07 22:10 32.34819 -108.04733 34912 ft 478 kts 110°
2026-05-07 22:11 32.33174 -107.97099 34868 ft 480 kts 111°
2026-05-07 22:11 32.31527 -107.89492 34873 ft 480 kts 111°
2026-05-07 22:12 32.29865 -107.81831 34877 ft 481 kts 111°
2026-05-07 22:12 32.29035 -107.78004 35055 ft 481 kts 111°
2026-05-07 22:12 32.28202 -107.74174 35038 ft 481 kts 111°
2026-05-07 22:13 32.26521 -107.66507 35039 ft 482 kts 111°
2026-05-07 22:13 32.24837 -107.58828 35034 ft 482 kts 111°
2026-05-07 22:14 32.23151 -107.51156 35003 ft 483 kts 111°
2026-05-07 22:14 32.21461 -107.43477 34963 ft 483 kts 111°
2026-05-07 22:15 32.19772 -107.35843 34899 ft 484 kts 112°
2026-05-07 22:15 32.18067 -107.28154 34895 ft 484 kts 112°
2026-05-07 22:16 32.16348 -107.20456 34937 ft 485 kts 112°
2026-05-07 22:16 32.14628 -107.12745 34979 ft 486 kts 112°
2026-05-07 22:17 32.12907 -107.05044 35003 ft 486 kts 112°
2026-05-07 22:17 32.11172 -106.97334 34996 ft 487 kts 113°
2026-05-07 22:18 32.08546 -106.85748 34950 ft 488 kts 113°
2026-05-07 22:19 32.06798 -106.78020 34985 ft 488 kts 113°
2026-05-07 22:19 32.05047 -106.70271 35008 ft 488 kts 113°
2026-05-07 22:20 32.03294 -106.62579 34965 ft 490 kts 114°
2026-05-07 22:20 32.01520 -106.54789 34963 ft 493 kts 114°
2026-05-07 22:21 31.99727 -106.46980 34963 ft 494 kts 114°
2026-05-07 22:21 31.97917 -106.39154 34990 ft 495 kts 114°
2026-05-07 22:22 31.96104 -106.31299 34976 ft 496 kts 114°
2026-05-07 22:22 31.95103 -106.23184 34966 ft 515 kts 98°
2026-05-07 22:23 31.95008 -106.14722 34947 ft 516 kts 98°
2026-05-07 22:23 31.94867 -106.06258 34930 ft 517 kts 98°
2026-05-07 22:24 31.94709 -105.97793 34883 ft 517 kts 98°
2026-05-07 22:24 31.94551 -105.89321 34898 ft 518 kts 99°
2026-05-07 22:25 31.94396 -105.80882 34905 ft 519 kts 98°
2026-05-07 22:25 31.94244 -105.72371 34908 ft 519 kts 99°
2026-05-07 22:26 31.94086 -105.63861 34896 ft 519 kts 99°
2026-05-07 22:26 31.93909 -105.55350 34892 ft 520 kts 99°
2026-05-07 22:27 31.93728 -105.46829 34896 ft 521 kts 99°
2026-05-07 22:27 31.93544 -105.38332 34879 ft 522 kts 99°
2026-05-07 22:28 31.93355 -105.29778 34891 ft 523 kts 99°
2026-05-07 22:28 31.93178 -105.21248 34896 ft 524 kts 99°
2026-05-07 22:29 31.93001 -105.12664 34902 ft 525 kts 99°
2026-05-07 22:29 31.92819 -105.04065 34927 ft 525 kts 99°
2026-05-07 22:30 31.92619 -104.95460 34938 ft 526 kts 99°
2026-05-07 22:30 31.92410 -104.86849 34962 ft 526 kts 99°
2026-05-07 22:31 31.92203 -104.78306 34959 ft 526 kts 99°
2026-05-07 22:31 31.91988 -104.69690 34959 ft 526 kts 99°
2026-05-07 22:32 31.91763 -104.61080 34982 ft 526 kts 100°
2026-05-07 22:32 31.91536 -104.52455 34984 ft 526 kts 100°
2026-05-07 22:33 31.91309 -104.43847 34992 ft 526 kts 100°
2026-05-07 22:33 31.91068 -104.35243 34998 ft 526 kts 100°
2026-05-07 22:34 31.90822 -104.26619 34992 ft 526 kts 100°
2026-05-07 22:34 31.90571 -104.18006 34974 ft 526 kts 100°
2026-05-07 22:35 31.90321 -104.09439 34977 ft 527 kts 100°
2026-05-07 22:35 31.90064 -104.00818 34980 ft 527 kts 100°
2026-05-07 22:36 31.89788 -103.92194 34980 ft 527 kts 100°
2026-05-07 22:36 31.89510 -103.83565 34963 ft 527 kts 100°
2026-05-07 22:37 31.89231 -103.74926 34965 ft 528 kts 100°
2026-05-07 22:37 31.88953 -103.66280 34969 ft 528 kts 100°
2026-05-07 22:38 31.88660 -103.57638 34967 ft 529 kts 100°
2026-05-07 22:38 31.88361 -103.48998 34949 ft 529 kts 101°
2026-05-07 22:39 31.88061 -103.40348 34958 ft 529 kts 101°
2026-05-07 22:39 31.87804 -103.33151 34970 ft 530 kts 101°
2026-05-07 22:40 31.87424 -103.24489 34971 ft 525 kts 106°
2026-05-07 22:40 31.86179 -103.16158 34982 ft 518 kts 110°
2026-05-07 22:41 31.84854 -103.07814 34973 ft 519 kts 110°
2026-05-07 22:41 31.83528 -102.99464 34977 ft 519 kts 110°
2026-05-07 22:42 31.82196 -102.91117 34988 ft 519 kts 110°
2026-05-07 22:42 31.80860 -102.82771 34991 ft 519 kts 110°
2026-05-07 22:43 31.79517 -102.74417 34987 ft 520 kts 110°
2026-05-07 22:43 31.78163 -102.66081 35019 ft 519 kts 110°
2026-05-07 22:44 31.76808 -102.57792 35044 ft 520 kts 110°
2026-05-07 22:44 31.75448 -102.49440 35057 ft 520 kts 110°
2026-05-07 22:45 31.74094 -102.41105 35058 ft 519 kts 110°
2026-05-07 22:45 31.72728 -102.32781 35036 ft 519 kts 110°
2026-05-07 22:46 31.71350 -102.24462 35034 ft 518 kts 110°
2026-05-07 22:46 31.69968 -102.16152 35014 ft 518 kts 110°
2026-05-07 22:47 31.68580 -102.07843 35017 ft 518 kts 110°
2026-05-07 22:47 31.67189 -101.99535 35006 ft 519 kts 111°
2026-05-07 22:48 31.65794 -101.91226 35012 ft 519 kts 111°
2026-05-07 22:48 31.64390 -101.82920 35028 ft 519 kts 111°
2026-05-07 22:49 31.62992 -101.74667 35045 ft 519 kts 111°
2026-05-07 22:49 31.61582 -101.66370 35035 ft 519 kts 111°
2026-05-07 22:50 31.60167 -101.58073 35039 ft 519 kts 111°
2026-05-07 22:50 31.58739 -101.49777 35043 ft 519 kts 111°
2026-05-07 22:51 31.57300 -101.41481 35050 ft 519 kts 111°
2026-05-07 22:51 31.55871 -101.33187 35044 ft 519 kts 110°
2026-05-07 22:52 31.54439 -101.24893 35052 ft 518 kts 110°
2026-05-07 22:52 31.52995 -101.16620 35056 ft 518 kts 110°
2026-05-07 22:53 31.51544 -101.08395 35056 ft 518 kts 110°
2026-05-07 22:53 31.50087 -101.00121 35060 ft 518 kts 110°
2026-05-07 22:54 31.48629 -100.91864 35060 ft 518 kts 110°
2026-05-07 22:54 31.47169 -100.83586 35075 ft 518 kts 110°
2026-05-07 22:55 31.45711 -100.75383 35090 ft 518 kts 110°
2026-05-07 22:55 31.44232 -100.67130 35103 ft 518 kts 110°
2026-05-07 22:56 31.42755 -100.58878 35114 ft 518 kts 110°
2026-05-07 22:56 31.41270 -100.50612 35095 ft 519 kts 110°
2026-05-07 22:57 31.39773 -100.42344 35086 ft 520 kts 110°
2026-05-07 22:57 31.38261 -100.34041 35083 ft 521 kts 110°
2026-05-07 22:58 31.36760 -100.25797 35042 ft 521 kts 110°
2026-05-07 22:58 31.35247 -100.17502 35048 ft 521 kts 109°
2026-05-07 22:59 31.33728 -100.09207 35074 ft 520 kts 109°
2026-05-07 22:59 31.32198 -100.00928 35085 ft 520 kts 109°
2026-05-07 23:00 31.30666 -99.92676 35087 ft 519 kts 109°
2026-05-07 23:00 31.29148 -99.84466 35087 ft 519 kts 109°
2026-05-07 23:01 31.27621 -99.76210 35074 ft 520 kts 109°
2026-05-07 23:01 31.26073 -99.67939 35081 ft 521 kts 109°
2026-05-07 23:02 31.24515 -99.59658 35093 ft 521 kts 109°
2026-05-07 23:02 31.22953 -99.51380 35098 ft 522 kts 109°
2026-05-07 23:03 31.21392 -99.43101 35094 ft 522 kts 109°
2026-05-07 23:03 31.19823 -99.34852 35117 ft 523 kts 109°
2026-05-07 23:04 31.18239 -99.26557 35089 ft 524 kts 109°
2026-05-07 23:04 31.16653 -99.18249 35102 ft 525 kts 109°
2026-05-07 23:05 31.15054 -99.09914 35101 ft 525 kts 109°
2026-05-07 23:05 31.13458 -99.01591 35085 ft 526 kts 108°
2026-05-07 23:06 31.11853 -98.93253 35082 ft 527 kts 109°
2026-05-07 23:06 31.10229 -98.84909 35080 ft 527 kts 109°
2026-05-07 23:07 31.08599 -98.76568 35082 ft 528 kts 109°
2026-05-07 23:07 31.06969 -98.68224 35070 ft 528 kts 109°
2026-05-07 23:08 31.05330 -98.59869 35072 ft 529 kts 109°
2026-05-07 23:08 31.03687 -98.51560 35075 ft 529 kts 109°
2026-05-07 23:09 31.02036 -98.43185 35088 ft 530 kts 109°
2026-05-07 23:09 31.00386 -98.34809 35092 ft 529 kts 109°
2026-05-07 23:10 30.98713 -98.26438 35082 ft 530 kts 109°
2026-05-07 23:10 30.97038 -98.18081 35070 ft 530 kts 109°
2026-05-07 23:11 30.95381 -98.09765 35084 ft 530 kts 109°
2026-05-07 23:11 30.93705 -98.01416 35094 ft 529 kts 109°
2026-05-07 23:12 30.92005 -97.93056 35092 ft 530 kts 109°
2026-05-07 23:12 30.90318 -97.84752 35095 ft 530 kts 109°
2026-05-07 23:13 30.88620 -97.76386 35101 ft 531 kts 109°
2026-05-07 23:13 30.86913 -97.68024 35110 ft 531 kts 109°
2026-05-07 23:14 30.85201 -97.59658 35112 ft 532 kts 109°
2026-05-07 23:14 30.83486 -97.51276 35109 ft 532 kts 109°
2026-05-07 23:15 30.81763 -97.42909 35094 ft 531 kts 110°
2026-05-07 23:15 30.80033 -97.34540 35097 ft 532 kts 110°
2026-05-07 23:16 30.78301 -97.26187 35089 ft 532 kts 110°
2026-05-07 23:16 30.76556 -97.17828 35090 ft 532 kts 110°
2026-05-07 23:17 30.74813 -97.09471 35062 ft 532 kts 110°
2026-05-07 23:17 30.73075 -97.01170 35075 ft 532 kts 110°
2026-05-07 23:18 30.71309 -96.92827 35077 ft 532 kts 110°
2026-05-07 23:18 30.69541 -96.84480 35085 ft 532 kts 110°
2026-05-07 23:19 30.67776 -96.76141 35082 ft 532 kts 110°
2026-05-07 23:19 30.66010 -96.67788 35086 ft 532 kts 110°
2026-05-07 23:20 30.64235 -96.59446 35091 ft 532 kts 110°
2026-05-07 23:20 30.62447 -96.51109 35072 ft 532 kts 110°
2026-05-07 23:21 30.60660 -96.42773 35062 ft 533 kts 108°
2026-05-07 23:21 30.59502 -96.34215 35061 ft 537 kts 103°
2026-05-07 23:22 30.58426 -96.25683 35062 ft 537 kts 103°
2026-05-07 23:22 30.57325 -96.17095 35046 ft 537 kts 104°
2026-05-07 23:23 30.56216 -96.08515 35011 ft 537 kts 103°
2026-05-07 23:23 30.55102 -95.99930 34987 ft 538 kts 103°
2026-05-07 23:24 30.53983 -95.91334 34963 ft 538 kts 103°
2026-05-07 23:24 30.52867 -95.82807 34967 ft 538 kts 104°
2026-05-07 23:25 30.51728 -95.74217 34978 ft 538 kts 104°
2026-05-07 23:25 30.50591 -95.65630 34971 ft 538 kts 104°
2026-05-07 23:26 30.49458 -95.57044 35025 ft 539 kts 104°
2026-05-07 23:26 30.48311 -95.48449 35038 ft 539 kts 104°
2026-05-07 23:27 30.46571 -95.35570 35051 ft 539 kts 104°
2026-05-07 23:27 30.45603 -95.28430 35047 ft 539 kts 104°
2026-05-07 23:28 30.44244 -95.18447 35045 ft 540 kts 104°
2026-05-07 23:28 30.43255 -95.11242 35045 ft 540 kts 104°
2026-05-07 23:29 30.42073 -95.02656 35042 ft 540 kts 104°
2026-05-07 23:29 30.40900 -94.94108 35033 ft 540 kts 104°
2026-05-07 23:30 30.39716 -94.85518 35035 ft 540 kts 104°
2026-05-07 23:30 30.38515 -94.76924 35039 ft 540 kts 104°
2026-05-07 23:31 30.37309 -94.68339 35041 ft 540 kts 104°
2026-05-07 23:31 30.36099 -94.59763 35042 ft 540 kts 104°
2026-05-07 23:32 30.34888 -94.51181 35036 ft 540 kts 104°
2026-05-07 23:32 30.33668 -94.42607 35039 ft 540 kts 104°
2026-05-07 23:33 30.32447 -94.34031 35007 ft 540 kts 104°
2026-05-07 23:33 30.31228 -94.25522 35028 ft 539 kts 104°
2026-05-07 23:34 30.29988 -94.16971 35035 ft 539 kts 104°
2026-05-07 23:34 30.28747 -94.08416 35040 ft 539 kts 104°
2026-05-07 23:35 30.27505 -93.99866 35036 ft 539 kts 104°
2026-05-07 23:35 30.26263 -93.91333 35036 ft 538 kts 104°
2026-05-07 23:36 30.25010 -93.82783 35039 ft 538 kts 104°
2026-05-07 23:36 30.23749 -93.74255 35035 ft 538 kts 104°
2026-05-07 23:37 30.22479 -93.65751 35045 ft 538 kts 104°
2026-05-07 23:37 30.21200 -93.57226 35048 ft 537 kts 104°
2026-05-07 23:38 30.19936 -93.48763 35049 ft 537 kts 104°
2026-05-07 23:38 30.18665 -93.40251 35049 ft 537 kts 104°
2026-05-07 23:39 30.17383 -93.31746 35048 ft 537 kts 104°
2026-05-07 23:39 30.16085 -93.23245 35037 ft 537 kts 105°
2026-05-07 23:40 30.14785 -93.14748 35038 ft 536 kts 105°
2026-05-07 23:40 30.12926 -93.06559 35037 ft 527 kts 116°
2026-05-07 23:41 30.10459 -92.98581 35041 ft 527 kts 116°
2026-05-07 23:41 30.07988 -92.90591 35017 ft 527 kts 115°
2026-05-07 23:42 30.05525 -92.82631 35049 ft 526 kts 115°
2026-05-07 23:42 30.03063 -92.74692 35050 ft 525 kts 116°
2026-05-07 23:43 30.00616 -92.66826 35044 ft 524 kts 115°
2026-05-07 23:43 29.98147 -92.58915 35043 ft 523 kts 116°
2026-05-07 23:44 29.95672 -92.51020 35045 ft 523 kts 116°
2026-05-07 23:44 29.93198 -92.43141 35035 ft 522 kts 116°
2026-05-07 23:45 29.90720 -92.35270 35028 ft 522 kts 116°
2026-05-07 23:45 29.88241 -92.27399 35033 ft 522 kts 116°
2026-05-07 23:46 29.85760 -92.19536 35024 ft 522 kts 116°
2026-05-07 23:46 29.83272 -92.11674 35026 ft 522 kts 116°
2026-05-07 23:47 29.80782 -92.03813 34992 ft 522 kts 116°
2026-05-07 23:47 29.78301 -91.96013 35008 ft 522 kts 116°
2026-05-07 23:48 29.75787 -91.88153 35019 ft 522 kts 116°
2026-05-07 23:48 29.73277 -91.80299 35019 ft 523 kts 116°
2026-05-07 23:49 29.70758 -91.72442 35015 ft 523 kts 116°
2026-05-07 23:49 29.68235 -91.64583 35031 ft 523 kts 116°
2026-05-07 23:50 29.65708 -91.56733 35039 ft 524 kts 116°
2026-05-07 23:50 29.63168 -91.48867 35035 ft 524 kts 116°
2026-05-07 23:51 29.60627 -91.41003 35037 ft 525 kts 116°
2026-05-07 23:51 29.58098 -91.33190 35040 ft 525 kts 116°
2026-05-07 23:52 29.55538 -91.25328 35042 ft 525 kts 116°
2026-05-07 23:52 29.52971 -91.17470 35006 ft 525 kts 116°
2026-05-07 23:53 29.50418 -91.09632 35031 ft 524 kts 116°
2026-05-07 23:53 29.47870 -91.01809 35035 ft 523 kts 116°
2026-05-07 23:54 29.45312 -90.93998 35031 ft 522 kts 116°
2026-05-07 23:54 29.42762 -90.86257 35029 ft 522 kts 116°
2026-05-07 23:55 29.40190 -90.78468 35028 ft 522 kts 116°
2026-05-07 23:55 29.37621 -90.70688 35021 ft 522 kts 116°
2026-05-07 23:56 29.35051 -90.62918 35028 ft 522 kts 116°
2026-05-07 23:56 29.32474 -90.55141 35033 ft 522 kts 116°
2026-05-07 23:57 29.29893 -90.47367 35036 ft 522 kts 116°
2026-05-07 23:57 29.27313 -90.39604 35038 ft 522 kts 116°
2026-05-07 23:58 29.24732 -90.31877 35014 ft 521 kts 116°
2026-05-07 23:58 29.22131 -90.24131 35032 ft 521 kts 116°
2026-05-07 23:59 29.19534 -90.16403 35035 ft 520 kts 116°
2026-05-07 23:59 29.16926 -90.08676 35033 ft 519 kts 117°
2026-05-08 00:00 29.14148 -90.01064 35030 ft 518 kts 119°
2026-05-08 00:00 29.11265 -89.93570 35029 ft 517 kts 119°
2026-05-08 00:01 29.08388 -89.86028 35033 ft 517 kts 118°
2026-05-08 00:01 29.05549 -89.78465 35033 ft 517 kts 118°
2026-05-08 00:02 29.02723 -89.70903 35032 ft 517 kts 118°
2026-05-08 00:02 28.99880 -89.63334 35029 ft 517 kts 118°
2026-05-08 00:03 28.97043 -89.55823 35031 ft 517 kts 118°
2026-05-08 00:03 28.94191 -89.48284 35018 ft 517 kts 118°
2026-05-08 00:04 28.91332 -89.40752 35030 ft 516 kts 118°
2026-05-08 00:04 28.88466 -89.33231 35029 ft 516 kts 118°
2026-05-08 00:05 28.85607 -89.25715 35030 ft 516 kts 118°
2026-05-08 00:05 28.82744 -89.18207 35029 ft 516 kts 118°
2026-05-08 00:06 28.79892 -89.10751 35031 ft 516 kts 118°
2026-05-08 00:06 28.77023 -89.03261 35031 ft 515 kts 118°
2026-05-08 00:07 28.74142 -88.95766 35030 ft 515 kts 118°
2026-05-08 00:07 28.71265 -88.88290 35030 ft 515 kts 118°
2026-05-08 00:08 28.68386 -88.80816 35027 ft 515 kts 118°
2026-05-08 00:08 28.65519 -88.73385 35011 ft 515 kts 118°
2026-05-08 00:09 28.62636 -88.65922 35029 ft 514 kts 118°
2026-05-08 00:09 28.59749 -88.58480 35033 ft 514 kts 118°
2026-05-08 00:10 28.56858 -88.51041 35034 ft 514 kts 118°
2026-05-08 00:10 28.53959 -88.43612 35038 ft 513 kts 118°
2026-05-08 00:11 28.51059 -88.36196 35035 ft 513 kts 118°
2026-05-08 00:11 28.48170 -88.28779 35037 ft 513 kts 118°
2026-05-08 00:12 28.45274 -88.21359 35037 ft 513 kts 118°
2026-05-08 00:12 28.42395 -88.14009 35037 ft 512 kts 118°
2026-05-08 00:13 28.39489 -88.06616 35029 ft 512 kts 118°
2026-05-08 00:13 28.36947 -87.99009 35030 ft 516 kts 112°
2026-05-08 00:14 28.34714 -87.91256 35020 ft 516 kts 111°
2026-05-08 00:14 28.32496 -87.83554 35031 ft 516 kts 111°
2026-05-08 00:15 28.30254 -87.75812 35035 ft 515 kts 111°
2026-05-08 00:15 28.28386 -87.69371 35029 ft 515 kts 111°
2026-05-08 00:16 28.26143 -87.61637 35037 ft 516 kts 111°
2026-05-08 00:16 28.23903 -87.53946 35032 ft 516 kts 111°
2026-05-08 00:17 28.21638 -87.46217 35043 ft 516 kts 111°
2026-05-08 00:17 28.19372 -87.38486 35040 ft 516 kts 111°
2026-05-08 00:18 28.17105 -87.30742 35034 ft 517 kts 111°
2026-05-08 00:18 28.14853 -87.23058 35033 ft 517 kts 111°
2026-05-08 00:19 28.12570 -87.15328 35037 ft 517 kts 111°
2026-05-08 00:19 28.10288 -87.07596 35040 ft 518 kts 111°
2026-05-08 00:20 28.07993 -86.99857 35044 ft 518 kts 112°
2026-05-08 00:20 28.05687 -86.92129 35040 ft 518 kts 111°
2026-05-08 00:21 28.03381 -86.84393 35044 ft 517 kts 111°
2026-05-08 00:21 28.01084 -86.76670 35031 ft 517 kts 111°
2026-05-08 00:22 27.98839 -86.68992 35038 ft 517 kts 111°
2026-05-08 00:22 27.96611 -86.61255 35041 ft 517 kts 111°
2026-05-08 00:23 27.94384 -86.53511 35041 ft 517 kts 111°
2026-05-08 00:23 27.92155 -86.45827 35045 ft 517 kts 111°
2026-05-08 00:24 27.89885 -86.38062 35047 ft 517 kts 111°
2026-05-08 00:24 27.87626 -86.30349 35047 ft 517 kts 111°
2026-05-08 00:25 27.85375 -86.22670 35046 ft 517 kts 111°
2026-05-08 00:25 27.83117 -86.14952 35048 ft 517 kts 111°
2026-05-08 00:26 27.80851 -86.07244 35044 ft 517 kts 111°
2026-05-08 00:26 27.78577 -85.99533 35046 ft 517 kts 111°
2026-05-08 00:27 27.76294 -85.91837 35047 ft 517 kts 111°
2026-05-08 00:27 27.74033 -85.84185 35047 ft 517 kts 111°
2026-05-08 00:28 27.71748 -85.76492 35050 ft 516 kts 111°
2026-05-08 00:28 27.69458 -85.68809 35047 ft 516 kts 111°
2026-05-08 00:29 27.67170 -85.61119 35048 ft 516 kts 111°
2026-05-08 00:29 27.64881 -85.53439 35051 ft 516 kts 111°
2026-05-08 00:30 27.62584 -85.45757 35048 ft 516 kts 111°
2026-05-08 00:30 27.60284 -85.38092 35046 ft 516 kts 111°
2026-05-08 00:31 27.58464 -85.30310 35050 ft 518 kts 103°
2026-05-08 00:31 27.57083 -85.22332 35050 ft 518 kts 103°
2026-05-08 00:32 27.55694 -85.14366 35052 ft 518 kts 103°
2026-05-08 00:32 27.54295 -85.06392 35049 ft 518 kts 103°
2026-05-08 00:33 27.52895 -84.98421 35049 ft 518 kts 103°
2026-05-08 00:33 27.51494 -84.90451 35053 ft 518 kts 103°
2026-05-08 00:34 27.50095 -84.82491 35055 ft 518 kts 103°
2026-05-08 00:34 27.48678 -84.74535 35053 ft 518 kts 103°
2026-05-08 00:35 27.47256 -84.66576 35055 ft 518 kts 103°
2026-05-08 00:35 27.45833 -84.58623 35060 ft 518 kts 103°
2026-05-08 00:36 27.44409 -84.50674 35062 ft 518 kts 103°
2026-05-08 00:36 27.42983 -84.42727 35059 ft 517 kts 103°
2026-05-08 00:37 27.42099 -84.34696 35061 ft 519 kts 92°
2026-05-08 00:38 27.41786 -84.22568 35061 ft 519 kts 92°
2026-05-08 00:38 27.41556 -84.14403 35062 ft 518 kts 92°
2026-05-08 00:39 27.41329 -84.06337 35061 ft 518 kts 92°
2026-05-08 00:39 27.41097 -83.98231 35061 ft 518 kts 92°
2026-05-08 00:40 27.40861 -83.90113 35061 ft 518 kts 92°
2026-05-08 00:40 27.40611 -83.81998 35064 ft 518 kts 92°
2026-05-08 00:41 27.40355 -83.73896 35064 ft 518 kts 92°
2026-05-08 00:41 27.40105 -83.65795 35065 ft 518 kts 92°
2026-05-08 00:42 27.39857 -83.57700 35063 ft 517 kts 92°
2026-05-08 00:42 27.39601 -83.49654 35064 ft 517 kts 92°
2026-05-08 00:43 27.39324 -83.41557 35065 ft 517 kts 92°
2026-05-08 00:43 27.39045 -83.33475 35064 ft 517 kts 92°
2026-05-08 00:44 27.38776 -83.25392 35064 ft 516 kts 92°
2026-05-08 00:44 27.38496 -83.17315 35063 ft 516 kts 93°
2026-05-08 00:45 27.37300 -83.09452 35063 ft 512 kts 109°
2026-05-08 00:45 27.35239 -83.01764 35063 ft 512 kts 108°
2026-05-08 00:46 27.33199 -82.94079 35061 ft 512 kts 108°
2026-05-08 00:46 27.31159 -82.86412 35062 ft 512 kts 108°
2026-05-08 00:47 27.29050 -82.78750 35053 ft 511 kts 113°
2026-05-08 00:47 27.26035 -82.71579 35050 ft 508 kts 118°
2026-05-08 00:47 27.24469 -82.68031 34793 ft 508 kts 119°
2026-05-08 00:48 27.22882 -82.64440 33833 ft 516 kts 119°
2026-05-08 00:48 27.21273 -82.60803 32666 ft 525 kts 118°
2026-05-08 00:48 27.19637 -82.57109 31725 ft 526 kts 118°
2026-05-08 00:48 27.18051 -82.53518 31425 ft 515 kts 118°
2026-05-08 00:49 27.16458 -82.49912 31187 ft 514 kts 118°
2026-05-08 00:49 27.14872 -82.46325 30960 ft 513 kts 118°
2026-05-08 00:49 27.13284 -82.42745 30951 ft 511 kts 118°
2026-05-08 00:50 27.10099 -82.35577 31046 ft 513 kts 118°
2026-05-08 00:50 27.06909 -82.28411 31045 ft 513 kts 118°
2026-05-08 00:51 27.03727 -82.21270 31044 ft 513 kts 118°
2026-05-08 00:51 27.00531 -82.14103 31051 ft 513 kts 118°
2026-05-08 00:52 26.97337 -82.07007 31051 ft 512 kts 122°
2026-05-08 00:52 26.93113 -82.00627 30177 ft 512 kts 136°
2026-05-08 00:52 26.90663 -81.97730 29415 ft 511 kts 137°
2026-05-08 00:53 26.88205 -81.94859 28736 ft 509 kts 137°
2026-05-08 00:53 26.85758 -81.92012 28049 ft 506 kts 137°
2026-05-08 00:53 26.83323 -81.89175 27355 ft 504 kts 137°
2026-05-08 00:53 26.80905 -81.86341 26677 ft 501 kts 136°
2026-05-08 00:54 26.78536 -81.83544 26440 ft 488 kts 136°
2026-05-08 00:54 26.76242 -81.80826 26313 ft 473 kts 136°
2026-05-08 00:54 26.74011 -81.78194 26032 ft 462 kts 137°
2026-05-08 00:54 26.71797 -81.75605 25569 ft 458 kts 137°
2026-05-08 00:55 26.69598 -81.73051 25098 ft 454 kts 137°
2026-05-08 00:55 26.67409 -81.70524 24624 ft 451 kts 137°
2026-05-08 00:55 26.65231 -81.68012 24170 ft 448 kts 137°
2026-05-08 00:55 26.63096 -81.65486 23731 ft 447 kts 133°
2026-05-08 00:56 26.61241 -81.62783 23244 ft 445 kts 129°
2026-05-08 00:56 26.59395 -81.60024 22725 ft 442 kts 129°
2026-05-08 00:56 26.57534 -81.57250 21883 ft 448 kts 129°
2026-05-08 00:56 26.55656 -81.54465 21250 ft 447 kts 129°
2026-05-08 00:57 26.53815 -81.51729 20868 ft 440 kts 129°
2026-05-08 00:57 26.51961 -81.48976 19847 ft 444 kts 128°
2026-05-08 00:57 26.50109 -81.46230 18887 ft 442 kts 128°
2026-05-08 00:57 26.48260 -81.43496 18260 ft 439 kts 128°
2026-05-08 00:58 26.46443 -81.40807 18022 ft 427 kts 128°
2026-05-08 00:58 26.44687 -81.38206 17889 ft 413 kts 128°
2026-05-08 00:58 26.42983 -81.35681 17642 ft 402 kts 128°
2026-05-08 00:58 26.41326 -81.33227 17057 ft 391 kts 128°
2026-05-08 00:59 26.39638 -81.30821 15967 ft 396 kts 130°
2026-05-08 00:59 26.37884 -81.28448 15051 ft 395 kts 131°
2026-05-08 00:59 26.36151 -81.26166 14764 ft 376 kts 131°
2026-05-08 00:59 26.34476 -81.23974 14515 ft 369 kts 131°
2026-05-08 01:00 26.33377 -81.22537 14248 ft 366 kts 131°
2026-05-08 01:00 26.31741 -81.20389 13792 ft 362 kts 131°
2026-05-08 01:00 26.30130 -81.18259 13319 ft 358 kts 131°
2026-05-08 01:00 26.28539 -81.16144 12875 ft 354 kts 131°
2026-05-08 01:01 26.26966 -81.14058 12441 ft 350 kts 131°
2026-05-08 01:01 26.25406 -81.11997 12015 ft 346 kts 131°
2026-05-08 01:01 26.23853 -81.09950 11580 ft 345 kts 131°
2026-05-08 01:01 26.22308 -81.07918 11148 ft 342 kts 131°
2026-05-08 01:02 26.20779 -81.05909 10729 ft 338 kts 131°
2026-05-08 01:02 26.19265 -81.03922 10395 ft 332 kts 131°
2026-05-08 01:02 26.17796 -81.01993 10269 ft 320 kts 131°
2026-05-08 01:02 26.16387 -81.00143 10161 ft 308 kts 131°
2026-05-08 01:03 26.15156 -80.98237 9953 ft 301 kts 118°
2026-05-08 01:03 26.14411 -80.96114 9714 ft 300 kts 104°
2026-05-08 01:03 26.14026 -80.93834 9332 ft 299 kts 101°
2026-05-08 01:03 26.13656 -80.91555 8967 ft 297 kts 101°
2026-05-08 01:04 26.13285 -80.89296 8603 ft 296 kts 101°
2026-05-08 01:04 26.12912 -80.87051 8232 ft 294 kts 101°
2026-05-08 01:04 26.12538 -80.84813 7873 ft 293 kts 101°
2026-05-08 01:04 26.12166 -80.82591 7516 ft 292 kts 101°
2026-05-08 01:05 26.11797 -80.80381 7183 ft 290 kts 100°
2026-05-08 01:05 26.11439 -80.78183 6866 ft 287 kts 99°
2026-05-08 01:05 26.11127 -80.76019 6733 ft 282 kts 98°
2026-05-08 01:05 26.10836 -80.73858 6588 ft 282 kts 98°
2026-05-08 01:06 26.10548 -80.71699 6432 ft 281 kts 98°
2026-05-08 01:06 26.10261 -80.69548 6268 ft 280 kts 98°
2026-05-08 01:06 26.09969 -80.67408 6115 ft 279 kts 98°
2026-05-08 01:06 26.09675 -80.65281 5953 ft 278 kts 98°
2026-05-08 01:07 26.09382 -80.63162 5799 ft 276 kts 98°
2026-05-08 01:07 26.09090 -80.61055 5644 ft 276 kts 98°
2026-05-08 01:07 26.08797 -80.58953 5478 ft 274 kts 97°
2026-05-08 01:07 26.08509 -80.56894 5341 ft 271 kts 97°
2026-05-08 01:08 26.08190 -80.54828 5182 ft 271 kts 101°
2026-05-08 01:08 26.07863 -80.52767 5032 ft 273 kts 94°
2026-05-08 01:08 26.07807 -80.50621 4876 ft 280 kts 88°
2026-05-08 01:08 26.07826 -80.48457 4707 ft 280 kts 88°
2026-05-08 01:09 26.07828 -80.46313 4537 ft 273 kts 89°
2026-05-08 01:09 26.07819 -80.44225 4378 ft 265 kts 89°
2026-05-08 01:09 26.07810 -80.42209 4248 ft 256 kts 89°
2026-05-08 01:09 26.07803 -80.40246 3983 ft 252 kts 89°
2026-05-08 01:10 26.07796 -80.38300 3676 ft 251 kts 89°
2026-05-08 01:10 26.07788 -80.36358 3360 ft 251 kts 90°
2026-05-08 01:10 26.07780 -80.34444 3045 ft 249 kts 89°
2026-05-08 01:10 26.07772 -80.32524 2736 ft 247 kts 91°
2026-05-08 01:11 26.07764 -80.30642 2419 ft 241 kts 91°
2026-05-08 01:11 26.07756 -80.28802 2099 ft 233 kts 92°
2026-05-08 01:11 26.07748 -80.27068 1822 ft 217 kts 92°
2026-05-08 01:11 26.07741 -80.25457 1571 ft 199 kts 92°
2026-05-08 01:12 26.07734 -80.23966 1314 ft 185 kts 92°
2026-05-08 01:12 26.07728 -80.22622 1100 ft 163 kts 92°
2026-05-08 01:12 26.07722 -80.21421 887 ft 149 kts 92°
2026-05-08 01:12 26.07715 -80.20290 702 ft 144 kts 94°
2026-05-08 01:13 26.07709 -80.19193 530 ft 139 kts 91°
2026-05-08 01:13 26.07702 -80.18107 354 ft 142 kts 92°
2026-05-08 01:13 26.07696 -80.17018 144 ft 141 kts 91°
2026-05-08 01:13 26.07692 -80.15958 20 ft 123 kts 91°
2026-05-08 01:14 26.07686 -80.15213 16 ft 53 kts 90°
2026-05-08 01:14 26.07652 -80.14977 17 ft 17 kts 118°
2026-05-08 01:14 26.07600 -80.14877 17 ft 14 kts 120°
2026-05-08 01:14 26.07553 -80.14806 17 ft 8 kts 133°
2026-05-08 01:15 26.07502 -80.14772 18 ft 9 kts 185°
2026-05-08 01:15 26.07450 -80.14809 17 ft 5 kts 222°
2026-05-08 01:15 26.07420 -80.14839 16 ft 6 kts 220°
2026-05-08 01:15 26.07374 -80.14853 16 ft 8 kts 185°
2026-05-08 01:16 26.07315 -80.14854 16 ft 9 kts 179°
2026-05-08 01:16 26.07246 -80.14853 16 ft 9 kts 179°
2026-05-08 01:16 26.07179 -80.14852 16 ft 11 kts 178°
2026-05-08 01:16 26.07140 -80.14802 16 ft 6 kts 89°
2026-05-08 01:17 26.07123 -80.14756 17 ft 4 kts 125°
2026-05-08 01:17 26.07123 -80.14755 16 ft 0 kts 125°